Location: Fort Wayne
(41.1310°N, 85.1290°W)
Time: 09:18:44
(UTC-04:00)

COSMOS 2406 - Visible Passes

Search period start: 05 July 2015 00:00
Search period end: 15 July 2015 00:00
Orbit: 845 x 863 km, 71.0° (Epoch: 04 July)

Date Brightness Start Highest point End Pass type
(mag) Time Alt. Az. Time Alt. Az. Time Alt. Az.
05 Jul 5.0 04:05:39 10° N 04:10:40 32° NE 04:15:44 10° ESE visible
06 Jul 5.0 03:54:26 10° N 03:59:28 32° NE 04:04:34 10° ESE visible
06 Jul 3.8 05:38:40 10° NW 05:43:52 37° WSW 05:49:00 10° S visible
07 Jul 4.9 03:43:13 10° N 03:48:17 33° ENE 03:53:23 10° ESE visible
07 Jul 3.8 05:27:29 10° NW 05:32:40 36° WSW 05:37:46 10° S visible
08 Jul 4.8 03:32:01 10° N 03:37:05 33° ENE 03:42:13 10° ESE visible
08 Jul 3.8 05:16:18 10° NW 05:21:27 36° WSW 05:26:32 10° S visible
09 Jul 4.8 03:20:47 10° N 03:25:54 34° ENE 03:31:03 10° ESE visible
09 Jul 3.8 05:05:07 10° NW 05:10:15 35° WSW 05:15:18 10° SSW visible
10 Jul 4.7 03:09:34 10° N 03:14:42 34° ENE 03:19:53 10° ESE visible
10 Jul 3.8 04:53:56 10° NW 04:59:02 34° WSW 05:04:04 10° SSW visible
11 Jul 4.6 02:58:22 10° N 03:03:31 35° ENE 03:08:43 10° ESE visible
11 Jul 3.9 04:42:44 10° NW 04:47:50 34° WSW 04:51:31 16° SSW visible
12 Jul 4.6 02:47:08 10° N 02:52:19 36° ENE 02:57:12 12° ESE visible
12 Jul 3.9 04:31:34 10° NW 04:36:37 33° WSW 04:39:11 23° SSW visible
13 Jul 4.5 02:35:56 10° N 02:41:08 36° ENE 02:45:05 16° ESE visible
13 Jul 3.9 04:20:23 10° NW 04:25:25 33° WSW 04:27:06 27° SW visible
14 Jul 4.4 02:24:43 10° N 02:29:56 37° ENE 02:33:10 21° ESE visible
14 Jul 3.9 04:09:12 10° NW 04:14:13 32° WSW 04:15:11 30° SW visible
